TimeEST,TemperatureF,Dew PointF,Humidity,Sea Level PressureIn,VisibilityMPH,Wind Direction,Wind SpeedMPH,Gust SpeedMPH,PrecipitationIn,Events,Conditions,WindDirDegrees,DateUTC
12:53 AM,23.0,18.0,81,30.06,4.0,Calm,Calm,-,0.00,Snow,Light Snow,0,2013-02-03 05:53:00
1:53 AM,23.0,18.0,81,30.04,8.0,Calm,Calm,-,0.00,,Overcast,0,2013-02-03 06:53:00
2:53 AM,23.0,19.0,85,30.01,6.0,Calm,Calm,-,0.00,,Overcast,0,2013-02-03 07:53:00
3:53 AM,21.9,17.1,82,29.99,8.0,NW,3.5,-,N/A,,Overcast,320,2013-02-03 08:53:00
4:53 AM,21.9,17.1,82,29.98,10.0,Calm,Calm,-,0.00,,Overcast,0,2013-02-03 09:53:00
5:53 AM,21.0,16.0,81,29.96,10.0,North,3.5,-,N/A,,Clear,360,2013-02-03 10:53:00
6:53 AM,19.0,16.0,88,29.98,10.0,Calm,Calm,-,N/A,,Clear,0,2013-02-03 11:53:00
7:53 AM,19.0,16.0,88,29.99,6.0,Calm,Calm,-,N/A,,Clear,0,2013-02-03 12:53:00
8:53 AM,23.0,18.0,81,29.97,10.0,Calm,Calm,-,N/A,,Clear,0,2013-02-03 13:53:00
9:53 AM,25.0,16.0,69,29.95,10.0,Calm,Calm,-,N/A,,Clear,0,2013-02-03 14:53:00
10:53 AM,27.0,16.0,63,29.93,10.0,Variable,3.5,-,N/A,,Partly Cloudy,0,2013-02-03 15:53:00
11:53 AM,28.9,15.1,56,29.88,10.0,North,3.5,-,N/A,,Clear,360,2013-02-03 16:53:00
12:53 PM,30.0,15.1,54,29.84,10.0,WNW,6.9,-,N/A,,Clear,300,2013-02-03 17:53:00
1:53 PM,30.9,12.9,47,29.81,10.0,NNW,5.8,-,N/A,,Clear,330,2013-02-03 18:53:00
2:53 PM,30.9,12.0,46,29.80,10.0,NW,5.8,-,N/A,,Mostly Cloudy,310,2013-02-03 19:53:00
3:53 PM,30.9,12.9,47,29.78,10.0,NNW,4.6,-,N/A,,Mostly Cloudy,340,2013-02-03 20:53:00
4:53 PM,30.0,12.9,49,29.77,10.0,NNW,4.6,-,N/A,,Clear,340,2013-02-03 21:53:00
5:53 PM,28.9,12.0,49,29.78,10.0,NW,3.5,-,N/A,,Mostly Cloudy,320,2013-02-03 22:53:00
6:53 PM,28.9,12.0,49,29.79,10.0,NNW,3.5,-,N/A,,Scattered Clouds,330,2013-02-03 23:53:00
7:53 PM,25.0,15.1,66,29.79,10.0,WNW,3.5,-,N/A,,Clear,290,2013-02-04 00:53:00
8:53 PM,21.9,15.1,75,29.80,10.0,Calm,Calm,-,N/A,,Clear,0,2013-02-04 01:53:00
9:53 PM,24.1,12.9,62,29.80,10.0,WNW,4.6,-,N/A,,Clear,290,2013-02-04 02:53:00
10:53 PM,21.0,14.0,74,29.79,10.0,Calm,Calm,-,N/A,,Clear,0,2013-02-04 03:53:00
11:53 PM,19.9,14.0,78,29.80,10.0,Calm,Calm,-,N/A,,Clear,0,2013-02-04 04:53:00